TerraX-01

operational
NORAD ID: 66054 Int'l Des: 2025-234 Owner: TERXP/ZHWK Country: MY
LEOCIRCULARRETROGRADESSO

About TerraX-01

Description loading...

Live Position

Loading 3D Globe...

Upcoming Passes

Altitude History

Altitude vs Time

uPlot chart will show altitude changes over time

Two-Line Element Set

1 66054U 25234B 25318.83240384 .00008781 00000-0 39300-3 0 9990
2 66054 97.5034 24.4031 0014796 183.1012 177.0134 15.21425479 4061
Epoch: Nov 14, 2025 • Age: 8 hours

Current Status

Altitude 528.0 km
Velocity 7.59 km/s
Sub-Earth Point -53.46°S, 74.07°W
Launch Date Oct 19, 2025
Age 27 days
Type other

Technical Details

Classification Payload
Mass 250.00 kg
Dry Mass 250.00 kg
Total Mass 250.00 kg
Length 1.00 m
Diameter 1.00 m
Span 6.00 m
Shape Box+3 pan
Manufacturer ZHWK/SECM
Bus Type ZK1
Phase Status In Orbit
Owner/State TERXP/ZHWK/MY

Large Constellations

Loading constellations...